This is the latest recevied weather packets stored in our database for station/object ZR6G-15. If no packets are shown the sender has not sent any weather packets the latest 10 day(s).
| Time | Temp. | Humidity | Pressure | Rain* | Wind** | Luminosity | Snow |
|---|---|---|---|---|---|---|---|
| 1778107234 | 5.56° C | 30% | 1015.4 hPa | - | - | - | - |
| 1778106630 | 5.56° C | 30% | 1015.4 hPa | - | - | - | - |
| 1778106025 | 6.67° C | 29% | 1015.5 hPa | - | - | - | - |
| 1778105421 | 6.67° C | 29% | 1015.4 hPa | - | - | - | - |
| 1778104816 | 6.67° C | 27% | 1015.5 hPa | - | - | - | - |
| 1778104212 | 6.67° C | 29% | 1015.3 hPa | - | - | - | - |
| 1778103611 | 6.67° C | 27% | 1015.3 hPa | - | - | - | - |
| 1778103003 | 6.67° C | 27% | 1015.5 hPa | - | - | - | - |
| 1778102398 | 6.67° C | 26% | 1015.4 hPa | - | - | - | - |
| 1778101189 | 6.67° C | 26% | 1015.2 hPa | - | - | - | - |
| 1778100584 | 6.67° C | 26% | 1015.3 hPa | - | - | - | - |
| 1778099980 | 6.67° C | 27% | 1015.2 hPa | - | - | - | - |
| 1778099375 | 6.67° C | 27% | 1015.4 hPa | - | - | - | - |
| 1778098770 | 6.67° C | 30% | 1015.2 hPa | - | - | - | - |
| 1778098165 | 6.67° C | 28% | 1015.2 hPa | - | - | - | - |
| 1778097559 | 6.67° C | 30% | 1015.2 hPa | - | - | - | - |
| 1778096955 | 6.67° C | 30% | 1015.1 hPa | - | - | - | - |
| 1778096350 | 6.67° C | 29% | 1015 hPa | - | - | - | - |
| 1778095745 | 7.78° C | 27% | 1014.9 hPa | - | - | - | - |
| 1778095141 | 7.78° C | 28% | 1014.8 hPa | - | - | - | - |
| 1778094536 | 7.78° C | 29% | 1014.6 hPa | - | - | - | - |
| 1778093932 | 7.78° C | 28% | 1014.5 hPa | - | - | - | - |
| 1778093327 | 7.78° C | 27% | 1014.3 hPa | - | - | - | - |
| 1778092722 | 7.78° C | 27% | 1014.2 hPa | - | - | - | - |
| 1778092118 | 7.78° C | 26% | 1013.9 hPa | - | - | - | - |
* Rain since midnight (hover to see other rain measurements)
** Current wind speed in m/s (hover to see current wind gust speed)